Location: The Saddle
(36.8333°N, 80.3417°W)
Time: 09:25:44
(UTC-04:00)

A-11 Canister half - Pass Details

Date: 04 June 2024
Orbit: 1515 x 1685 km, 47.2° (Epoch: 17 June)

Event Time Altitude Azimuth Distance (km) Brightness Sun altitude
Rises 00:02:19 0° 239° (WSW) 4,879 11.5 -27.9°
Reaches altitude 10° 00:05:29 10° 241° (WSW) 3,875 11.0 -28.1°
Maximum altitude 00:15:24 81° 328° (NNW) 1,619 9.0 -28.8°
Drops below altitude 10° 00:24:58 10° 57° (ENE) 3,748 11.2 -29.3°
Sets 00:28:00 0° 58° (ENE) 4,713 11.8 -29.4°
